ONEWEB-0010, 44058

Orbit data source: Space-Track

ONEWEB-0010, 44058 is a payload satellite owned by One Web (UK) in LEO that was launched on Wed, 27 Feb 2019 UTC via a SOYUZ-ST-B launch vehicle from the French Guiana (FRGUI). Payload-class satellites include a variety of spacecraft equipped with specific instruments for various scientific and technological missions. These include communications satellites like Starlink; space stations such as the ISS; scientific satellites like the Hubble; Earth observation satellites from companies like Planet Labs, Umbra, and HawkEye 360; GPS; miniature CubeSats for education and research; and military/defense satellites.

Loading next visibility...
Identifier
44058, 2019-010B
Orbit
LEO
Country
Flag of UKUK
Related business
Manufacturer
Airbus/Toulouse
Mission
Operational Commercial Communications
Bus & Motor
ARROW, Unknown motor
Mass
148 kg wet, ~140 kg dry
Launch date (UTC)
2019-02-27 (7 years ago)
Launch vehicle
SOYUZ-ST-B
Launch site
French Guiana (FRGUI)
Object type
Payload
Rocket body
Debris
Shape & HBR
Trap Box + 2 Pan, 6.7 m
Radar Cross Section
3.464 m², Large (>1 m²)

Expand to show TLE details & history
Last TLE update: 14 hours ago

TLE from 14 hours ago
0 ONEWEB-0010
1 44058U 19010B   26038.01971367  .00000039  00000-0  68055-4 0  9995
2 44058  87.9004 254.6904 0001389 101.7636 258.3651 13.16593928334485
Epoch: 2026-02-07T00:28Z
TLE epoch observation values (Epoch: 2026-02-07T00:28:23.261Z)
Latitude
0.00002°
Longitude
110.44424°
Altitude
1,200.867 km
Speed
7.253 km/s
True Right ascension
16h 58m 45s
True Declination
0° 00' 00"
Sunlit
Object was in daylight at epoch
Visualization orbit readout
Latitude
Unknown
Longitude
Unknown
Altitude
Unknown
Speed
Unknown
Apparent Right ascension
Unknown
Apparent Declination
Unknown
Sunlit
N/A
Visualization observer readout
Local Sidereal Time
16:22:01
Azimuth
Unknown
Elevation
Unknown
Doppler factor
Unknown
Orbital elements
Apogee altitude
1,195.92 km
Perigee altitude
1,193.817 km
Semi-major axis
7,573.005 km
Eccentricity
0.00014
Inclination
87.9004°
RAAN
254.6904°
Arg. of periapsis
101.7636°
True anomaly
258.34951°
Mean anomaly
258.3651°
Eccentric anomaly
258.35731°
Mean motion
3.29337 °/min
Orbital period
109.31 mins
BSTAR
0.000068055
Loading maneuver chart data...
Computing Atmospheric mass density...
Loading historical data...
Loading historical data...
Loading historical data...
Loading historical data...
Loading historical data...
Loading historical data...
Loading historical data...
Other satellites on launch #10 in the year 2019 (2019-02-27 UTC)

Documentation

Showing up to 5 results
|